(82531) = 2001 OM61

Discovered at Haleakala on 2001-07-21 by NEAT.

Orbit

Orbit type: Main Belt

Note: WebGL enabled browser required.

epoch2023-09-13.0
epoch JD2460200.5
perihelion date2020-04-07.10924
perihelion JD2458946.60924
argument of perihelion (°)299.19670
ascending node (°)13.08901
inclination (°)4.79570
eccentricity0.1285604
perihelion distance (AU)2.0994970
Tisserand w.r.t. Jupiter3.5
ΔV w.r.t. Earth (km/sec)9.1
semimajor axis (AU)2.4092285
mean anomaly (°)330.48105
mean daily motion (°/day)0.26356450
aphelion distance (AU)2.719
period (years)3.74
P-vector [x]0.67213590
P-vector [y]-0.64699094
P-vector [z]-0.36005006
Q-vector [x]0.74018570
Q-vector [y]0.59955922
Q-vector [z]0.30439100
absolute magnitude15.33
phase slope0.15
uncertainty0
referenceMPEC 2024-A48
observations used1750
oppositions18
arc length (days)10052
first opposition used1996
last opposition used2023
residual rms (arc-secs)0.69
perturbers coarse indicatorM-v
perturbers precise indicator003Ek
first observation date used1996-01-15.0
last observation date used2023-07-24.0
computer nameMPCLINUX
JD of orbit computation2456700.195445
perihelion JD uncertainty (days)9.3049E-05
argument of perihelion uncertainty (°)3.3515E-05
ascending node uncertainty (°)2.7562E-05
inclination uncertainty (°)3.8347E-06
eccentricity uncertainty 4.1681E-08
perihelion distance uncertainty (AU)9.2522E-08
Minimum Orbit Intersection Distances (in AU)
for orbit epoch: 2460200.5, reference: E2024-A48
Mercury1.66406
Venus1.37159
Earth1.09007
Mars0.7043
Jupiter2.52619
Saturn6.40522
Uranus15.7697
Neptune27.4214

Observations

1765 total observations over interval: 1996 01 15.37166 – 2023 07 24.851112
These data are available for download (format description).

Date (UT) J2000 RA J2000 Dec Magn Location Ref
1996 01 15.37166 10 18 55.90 +16 38 51.6   691 – Steward Observatory, Kitt Peak-Spacewatch MPS 34476
1996 01 15.42550 10 18 54.14 +16 39 03.4 19.4 V 691 – Steward Observatory, Kitt Peak-Spacewatch MPS 34476
1996 01 15.44720 10 18 53.40 +16 39 08.0   691 – Steward Observatory, Kitt Peak-Spacewatch MPS 34476
2000 03 02.38581 11 34 33.74 +06 18 34.2 18.8 R 703 – Catalina Sky Survey MPS 34476
2000 03 02.40149 11 34 32.98 +06 18 38.1 19.6 R 703 – Catalina Sky Survey MPS 34476
2000 03 02.41718 11 34 32.11 +06 18 42.7 19.0 R 703 – Catalina Sky Survey MPS 34476
2000 03 02.43291 11 34 31.18 +06 18 47.8 18.8 R 703 – Catalina Sky Survey MPS 34476
2000 03 11.30866 11 25 56.32 +07 00 05.4 19.1   704 – Lincoln Laboratory ETS, New Mexico MPS 34476
2000 03 11.31403 11 25 56.04 +07 00 07.3 17.3 R 699 – Lowell Observatory-LONEOS MPS 34476
2000 03 11.32123 11 25 55.56 +07 00 08.7 19.1   704 – Lincoln Laboratory ETS, New Mexico MPS 34476
2000 03 11.33378 11 25 54.83 +07 00 12.3 19.0   704 – Lincoln Laboratory ETS, New Mexico MPS 34476
2000 03 11.33594 11 25 54.70 +07 00 12.5   699 – Lowell Observatory-LONEOS MPS 34476
2000 03 11.35144 11 25 53.73 +07 00 16.6 19.0   704 – Lincoln Laboratory ETS, New Mexico MPS 34476
2000 03 11.35784 11 25 53.33 +07 00 18.9   699 – Lowell Observatory-LONEOS MPS 34476
2000 03 11.36400 11 25 52.98 +07 00 19.7 19.3   704 – Lincoln Laboratory ETS, New Mexico MPS 34476
2000 03 11.37984 11 25 52.07 +07 00 24.7   699 – Lowell Observatory-LONEOS MPS 34476
2000 03 15.25368 11 22 03.26 +07 17 42.4 18.4   704 – Lincoln Laboratory ETS, New Mexico MPS 34476
2000 03 15.27085 11 22 02.22 +07 17 48.5 18.7   704 – Lincoln Laboratory ETS, New Mexico MPS 34476
2000 03 15.28419 11 22 01.48 +07 17 53.6 19.0   704 – Lincoln Laboratory ETS, New Mexico MPS 34476
2000 04 25.14442 10 55 08.80 +08 35 12.4 19.4 R 699 – Lowell Observatory-LONEOS MPS 34476
2000 04 25.16027 10 55 08.60 +08 35 11.0   699 – Lowell Observatory-LONEOS MPS 34476
2000 04 25.17607 10 55 08.44 +08 35 10.4   699 – Lowell Observatory-LONEOS MPS 34476
2000 04 25.19182 10 55 08.14 +08 35 09.8   699 – Lowell Observatory-LONEOS MPS 34476
2001 07 21.58079 21 49 34.71 -21 32 01.5 18.7   608 – Haleakala-AMOS MPS 32512
2001 07 21.59111 21 49 34.27 -21 32 03.7 18.6   608 – Haleakala-AMOS MPS 32512
2001 07 21.60249 21 49 33.81 -21 32 05.9 18.4   608 – Haleakala-AMOS MPS 32512
2001 07 27.59851 21 45 11.12 -21 53 38.1 18.0   608 – Haleakala-AMOS MPS 32512
2001 07 27.60946 21 45 10.57 -21 53 40.4 18.1   608 – Haleakala-AMOS MPS 32512
2001 07 27.62025 21 45 10.03 -21 53 42.6 18.3   608 – Haleakala-AMOS MPS 32512
2001 07 28.30185 21 44 37.49 -21 56 09.7 16.8 R 699 – Lowell Observatory-LONEOS MPS 32512
2001 07 28.32064 21 44 36.46 -21 56 14.0   699 – Lowell Observatory-LONEOS MPS 32512
2001 07 28.33940 21 44 35.52 -21 56 17.9   699 – Lowell Observatory-LONEOS MPS 32512
2001 07 28.35814 21 44 34.56 -21 56 22.1   699 – Lowell Observatory-LONEOS MPS 32512
2001 08 14.37757 21 28 35.72 -22 46 52.3 17.9   608 – Haleakala-AMOS MPS 32873
2001 08 14.38781 21 28 35.10 -22 46 53.4 18.0   608 – Haleakala-AMOS MPS 32873
2001 08 14.39894 21 28 34.39 -22 46 54.8 17.9   608 – Haleakala-AMOS MPS 32873
2001 08 16.27776 21 26 43.33 -22 50 29.6 17.9   704 – Lincoln Laboratory ETS, New Mexico MPS 32873
2001 08 16.28993 21 26 42.58 -22 50 31.0 17.8   704 – Lincoln Laboratory ETS, New Mexico MPS 32873
2001 08 16.30220 21 26 41.83 -22 50 31.7 18.1   704 – Lincoln Laboratory ETS, New Mexico MPS 32873
2001 08 16.31539 21 26 41.04 -22 50 33.0 18.0   704 – Lincoln Laboratory ETS, New Mexico MPS 32873
2001 08 16.32764 21 26 40.31 -22 50 35.1 18.1   704 – Lincoln Laboratory ETS, New Mexico MPS 32873
2001 08 19.26918 21 23 49.69 -22 55 01.2 17.4   704 – Lincoln Laboratory ETS, New Mexico MPS 33378
2001 08 19.28185 21 23 48.91 -22 55 01.5 17.5   704 – Lincoln Laboratory ETS, New Mexico MPS 33378
2001 08 19.29452 21 23 48.15 -22 55 02.1 17.8   704 – Lincoln Laboratory ETS, New Mexico MPS 33378
2001 08 19.30735 21 23 47.38 -22 55 03.0 17.7   704 – Lincoln Laboratory ETS, New Mexico MPS 33378
2001 08 19.32004 21 23 46.65 -22 55 04.1 17.8   704 – Lincoln Laboratory ETS, New Mexico MPS 33378
2001 08 23.22558 21 20 09.84 -22 58 42.3 17.2 R 699 – Lowell Observatory-LONEOS MPS 33378
2001 08 23.22637 21 20 09.81 -22 58 42.3 17.1 R 699 – Lowell Observatory-LONEOS MPS 33378
2001 08 23.23661 21 20 09.21 -22 58 42.1   699 – Lowell Observatory-LONEOS MPS 33378
2001 08 23.23740 21 20 09.22 -22 58 42.9   699 – Lowell Observatory-LONEOS MPS 33378
2001 08 23.24763 21 20 08.61 -22 58 42.9   699 – Lowell Observatory-LONEOS MPS 33378
2001 08 23.24842 21 20 08.59 -22 58 43.0   699 – Lowell Observatory-LONEOS MPS 33378
2001 08 23.25856 21 20 07.97 -22 58 43.2   699 – Lowell Observatory-LONEOS MPS 33378
2001 08 23.25933 21 20 07.95 -22 58 43.4   699 – Lowell Observatory-LONEOS MPS 33378
2001 08 25.17076 21 18 27.40 -22 59 31.2 17.8   704 – Lincoln Laboratory ETS, New Mexico MPS 33378
2001 08 25.18639 21 18 26.58 -22 59 32.4 17.9   704 – Lincoln Laboratory ETS, New Mexico MPS 33379
2001 08 25.20217 21 18 25.74 -22 59 32.4 18.1   704 – Lincoln Laboratory ETS, New Mexico MPS 33379
2001 08 25.21788 21 18 24.88 -22 59 32.8 18.0   704 – Lincoln Laboratory ETS, New Mexico MPS 33379
2001 08 25.23322 21 18 24.06 -22 59 33.4 18.1   704 – Lincoln Laboratory ETS, New Mexico MPS 33379
2001 08 26.30718 21 17 29.58 -22 59 39.9 18.3   608 – Haleakala-AMOS MPS 33379
2001 08 26.31802 21 17 29.01 -22 59 40.0 18.3   608 – Haleakala-AMOS MPS 33379
2001 08 26.32921 21 17 28.42 -22 59 40.1 18.3   608 – Haleakala-AMOS MPS 33379
2001 08 26.46031 21 17 21.42 -22 59 40.3 18.3   608 – Haleakala-AMOS MPS 33379
2001 08 26.47117 21 17 20.85 -22 59 40.3 18.2   608 – Haleakala-AMOS MPS 33379
2001 08 26.48183 21 17 20.30 -22 59 40.2 18.2   608 – Haleakala-AMOS MPS 33379
2001 08 27.20964 21 16 44.81 -22 59 37.8 17.5   644 – Palomar Mountain/NEAT MPS 34476
2001 08 27.22025 21 16 44.26 -22 59 37.8 17.6   644 – Palomar Mountain/NEAT MPS 34476
2001 08 27.23195 21 16 43.65 -22 59 37.6 17.6   644 – Palomar Mountain/NEAT MPS 34476
2001 09 08.23212 21 08 49.14 -22 45 29.2 17.6 R 699 – Lowell Observatory-LONEOS MPS 34476
2001 09 08.25401 21 08 48.41 -22 45 26.7   699 – Lowell Observatory-LONEOS MPS 34476
2001 09 08.27596 21 08 47.67 -22 45 24.0   699 – Lowell Observatory-LONEOS MPS 34476
2001 09 08.29791 21 08 46.96 -22 45 20.0   699 – Lowell Observatory-LONEOS MPS 34476
2001 09 11.19998 21 07 31.75 -22 38 14.4 18.0   704 – Lincoln Laboratory ETS, New Mexico MPS 34476
2001 09 11.21509 21 07 31.35 -22 38 12.5 18.5   704 – Lincoln Laboratory ETS, New Mexico MPS 34476
2001 09 11.23001 21 07 30.93 -22 38 09.9 18.3   704 – Lincoln Laboratory ETS, New Mexico MPS 34476
2001 09 11.24493 21 07 30.56 -22 38 07.4 18.2   704 – Lincoln Laboratory ETS, New Mexico MPS 34476
2001 09 11.25984 21 07 30.19 -22 38 05.0 18.5   704 – Lincoln Laboratory ETS, New Mexico MPS 34476
2001 09 19.13184 21 05 32.13 -22 12 17.2 19.2   704 – Lincoln Laboratory ETS, New Mexico MPS 35847
2001 09 19.14650 21 05 31.99 -22 12 13.5 18.7   704 – Lincoln Laboratory ETS, New Mexico MPS 35847
2001 09 19.16056 21 05 31.78 -22 12 10.0 19.3   704 – Lincoln Laboratory ETS, New Mexico MPS 35847
2001 09 19.17584 21 05 31.65 -22 12 06.0 18.1   704 – Lincoln Laboratory ETS, New Mexico MPS 35847
2001 09 21.11257 21 05 22.55 -22 04 22.9 18.2   704 – Lincoln Laboratory ETS, New Mexico MPS 35847
2001 09 21.14075 21 05 22.43 -22 04 15.7 18.4   704 – Lincoln Laboratory ETS, New Mexico MPS 35847
2001 09 21.15479 21 05 22.31 -22 04 12.0 18.7   704 – Lincoln Laboratory ETS, New Mexico MPS 35847
2001 09 21.16920 21 05 22.21 -22 04 08.3 18.8   704 – Lincoln Laboratory ETS, New Mexico MPS 35847
2001 10 15.09159 21 13 32.29 -19 52 38.0 18.7   704 – Lincoln Laboratory ETS, New Mexico MPS 37712
2001 10 15.10726 21 13 32.91 -19 52 32.1 19.3   704 – Lincoln Laboratory ETS, New Mexico MPS 37712
2001 10 15.12347 21 13 33.48 -19 52 25.3 19.2   704 – Lincoln Laboratory ETS, New Mexico MPS 37712
2001 10 15.14013 21 13 34.17 -19 52 19.4 18.9   704 – Lincoln Laboratory ETS, New Mexico MPS 37712
2002 12 11.37432 07 01 40.76 +30 00 56.1 19.2   704 – Lincoln Laboratory ETS, New Mexico MPS 67809
